H1 CPF 2 NER 2025 9 16 9 259 01 glonass127 H2 1106403 9127 37869 2025 9 16 0 0 0 2025 9 19 23 45 0 900 1 1 0 0 0 1 H9 10 0 60934 0.00000 0 1271776.569 -24839523.738 -5507263.504 10 0 60934 900.00000 0 1184250.690 -23950681.606 -8580518.322 10 0 60934 1800.00000 0 1219724.321 -22693433.861 -11486312.114 10 0 60934 2700.00000 0 1423567.958 -21105856.754 -14167818.682 10 0 60934 3600.00000 0 1832887.937 -19236558.226 -16572563.923 10 0 60934 4500.00000 0 2474701.136 -17142729.933 -18653475.540 10 0 60934 5400.00000 0 3364544.436 -14887850.101 -20369825.174 10 0 60934 6300.00000 0 4505580.637 -12539134.847 -21688042.651 10 0 60934 7200.00000 0 5888240.844 -10164846.616 -22582384.880 10 0 60934 8100.00000 0 7490419.972 -7831574.486 -23035445.354 10 0 60934 9000.00000 0 9278217.861 -5601602.094 -23038493.880 10 0 60934 9900.00000 0 11207194.751 -3530474.870 -22591640.005 10 0 60934 10800.00000 0 13224087.593 -1664869.133 -21703817.593 10 0 60934 11700.00000 0 15268913.870 -40852.208 -20392591.908 10 0 60934 12600.00000 0 17277373.058 1317394.588 -18683794.390 10 0 60934 13500.00000 0 19183443.417 2398338.554 -16610993.927 10 0 60934 14400.00000 0 20922063.839 3203314.542 -14214816.770 10 0 60934 15300.00000 0 22431787.311 3746194.417 -11542130.222 10 0 60934 16200.00000 0 23657294.388 4052524.656 -8645107.875 10 0 60934 17100.00000 0 24551661.598 4158172.108 -5580196.239 10 0 60934 18000.00000 0 25078290.665 4107538.515 -2407004.343 10 0 60934 18900.00000 0 25212419.305 3951422.029 812861.021 10 0 60934 19800.00000 0 24942152.400 3744618.172 4016991.198 10 0 60934 20700.00000 0 24268972.735 3543362.882 7143379.267 10 0 60934 21600.00000 0 23207712.331 3402725.956 10131608.476 10 0 60934 22500.00000 0 21785987.750 3374064.453 12924003.399 10 0 60934 23400.00000 0 20043124.653 3502642.315 15466722.987 10 0 60934 24300.00000 0 18028617.545 3825514.841 17710776.256 10 0 60934 25200.00000 0 15800189.036 4369765.300 19612943.176 10 0 60934 26100.00000 0 13421528.769 5151166.080 21136585.247 10 0 60934 27000.00000 0 10959804.516 6173319.377 22252332.420 10 0 60934 27900.00000 0 8483046.572 7427312.874 22938635.093 10 0 60934 28800.00000 0 6057511.377 8891905.134 23182172.112 10 0 60934 29700.00000 0 3745130.795 10534234.200 22978107.877 10 0 60934 30600.00000 0 1601150.042 12311021.895 22330193.861 10 0 60934 31500.00000 0 -327950.155 14170226.387 21250712.084 10 0 60934 32400.00000 0 -2006162.750 16053077.287 19760260.374 10 0 60934 33300.00000 0 -3409224.955 17896411.812 17887381.686 10 0 60934 34200.00000 0 -4525397.544 19635217.593 15668042.227 10 0 60934 35100.00000 0 -5355719.830 21205278.535 13144965.836 10 0 60934 36000.00000 0 -5913728.533 22545814.879 10366834.714 10 0 60934 36900.00000 0 -6224650.671 23602007.621 7387369.516 10 0 60934 37800.00000 0 -6324102.686 24327301.154 4264304.523 10 0 60934 38700.00000 0 -6256348.996 24685386.032 1058276.272 10 0 60934 39600.00000 0 -6072192.316 24651776.262 -2168353.456 10 0 60934 40500.00000 0 -5826584.461 24214911.838 -5352717.367 10 0 60934 41400.00000 0 -5576059.102 23376736.928 -8432680.584 10 0 60934 42300.00000 0 -5376096.441 22152726.213 -11348071.130 10 0 60934 43200.00000 0 -5278533.501 20571355.534 -14041877.029 10 0 60934 44100.00000 0 -5329132.420 18673037.044 -16461384.396 10 0 60934 45000.00000 0 -5565412.783 16508562.441 -18559231.881 10 0 60934 45900.00000 0 -6014842.880 14137119.376 -20294358.649 10 0 60934 46800.00000 0 -6693469.294 11623964.848 -21632825.380 10 0 60934 47700.00000 0 -7605045.174 9037854.396 -22548490.716 10 0 60934 48600.00000 0 -8740695.740 6448336.440 -23023528.882 10 0 60934 49500.00000 0 -10079136.101 3923026.810 -23048777.955 10 0 60934 50400.00000 0 -11587432.351 1524979.055 -22623912.028 10 0 60934 51300.00000 0 -13222273.306 -689738.394 -21757434.534 10 0 60934 52200.00000 0 -14931698.211 -2674156.586 -20466493.919 10 0 60934 53100.00000 0 -16657206.137 -4392123.982 -18776526.658 10 0 60934 54000.00000 0 -18336156.682 -5819557.561 -16720736.266 10 0 60934 54900.00000 0 -19904359.423 -6945177.044 -14339420.279 10 0 60934 55800.00000 0 -21298741.950 -7770694.555 -11679160.219 10 0 60934 56700.00000 0 -22459983.535 -8310455.344 -8791892.194 10 0 60934 57600.00000 0 -23335003.576 -8590548.541 -5733877.870 10 0 60934 58500.00000 0 -23879200.727 -8647429.128 -2564597.349 10 0 60934 59400.00000 0 -24058349.795 -8526112.548 654413.451 10 0 60934 60300.00000 0 -23850078.449 -8278020.838 3860757.676 10 0 60934 61200.00000 0 -23244863.801 -7958573.057 6992381.274 10 0 60934 62100.00000 0 -22246509.300 -7624622.649 9988762.635 10 0 60934 63000.00000 0 -20872084.026 -7331849.883 12792066.043 10 0 60934 63900.00000 0 -19151328.666 -7132218.521 15348237.979 10 0 60934 64800.00000 0 -17125554.106 -7071602.410 17608026.994 10 0 60934 65700.00000 0 -14846078.937 -7187680.039 19527909.594 10 0 60934 66600.00000 0 -12372270.485 -7508183.674 21070906.567 10 0 60934 67500.00000 0 -9769269.495 -8049574.849 22207276.256 10 0 60934 68400.00000 0 -7105490.851 -8816200.632 22915073.459 10 0 60934 69300.00000 0 -4450001.413 -9799965.549 23180564.730 10 0 60934 70200.00000 0 -1869880.647 -10980533.399 22998493.091 10 0 60934 71100.00000 0 572329.571 -12326051.886 22372187.344 10 0 60934 72000.00000 0 2820983.053 -13794372.009 21313513.378 10 0 60934 72900.00000 0 4829399.757 -15334714.098 19842667.236 10 0 60934 73800.00000 0 6561564.232 -16889714.057 17987812.024 10 0 60934 74700.00000 0 7993382.110 -18397767.431 15784563.328 10 0 60934 75600.00000 0 9113442.237 -19795576.059 13275330.423 10 0 60934 76500.00000 0 9923251.781 -21020792.822 10508523.281 10 0 60934 77400.00000 0 10436933.061 -22014654.821 7537638.217 10 0 60934 78300.00000 0 10680393.134 -22724494.603 4420237.782 10 0 60934 79200.00000 0 10689999.350 -23106022.988 1216843.167 10 0 60934 80100.00000 0 10510815.246 -23125285.481 -2010240.120 10 0 60934 81000.00000 0 10194470.391 -22760207.165 -5198140.465 10 0 60934 81900.00000 0 9796754.085 -22001657.744 -8284657.796 10 0 60934 82800.00000 0 9375035.455 -20853988.456 -11209495.056 10 0 60934 83700.00000 0 8985620.711 -19335015.015 -13915457.579 10 0 60934 84600.00000 0 8681161.719 -17475444.620 -16349594.682 10 0 60934 85500.00000 0 8508228.344 -15317769.182 -18464258.796 10 0 60935 0.00000 0 8505150.236 -12914670.472 -20218059.036 10 0 60935 900.00000 0 8700222.268 -10327002.660 -21576689.489 10 0 60935 1800.00000 0 9110351.897 -7621440.765 -22513612.162 10 0 60935 2700.00000 0 9740207.476 -4867890.509 -23010583.361 10 0 60935 3600.00000 0 10581904.647 -2136772.675 -23058010.284 10 0 60935 4500.00000 0 11615244.321 503704.095 -22655131.931 10 0 60935 5400.00000 0 12808491.745 2990166.585 -21810021.208 10 0 60935 6300.00000 0 14119662.700 5266486.029 -20539409.207 10 0 60935 7200.00000 0 15498261.010 7285872.202 -18868336.499 10 0 60935 8100.00000 0 16887392.267 9012565.956 -16829639.892 10 0 60935 9000.00000 0 18226162.864 10423061.236 -14463286.494 10 0 60935 9900.00000 0 19452261.576 11506808.010 -11815569.961 10 0 60935 10800.00000 0 20504613.693 12266370.001 -8938186.468 10 0 60935 11700.00000 0 21325995.262 12717034.322 -5887210.064 10 0 60935 12600.00000 0 21865497.299 12885893.261 -2721988.887 10 0 60935 13500.00000 0 22080736.932 12810440.535 496015.242 10 0 60935 14400.00000 0 21939723.680 12536744.271 3704420.575 10 0 60935 15300.00000 0 21422304.123 12117276.176 6841129.205 10 0 60935 16200.00000 0 20521126.255 11608489.934 9845517.829 10 0 60935 17100.00000 0 19242085.028 11068251.458 12659593.393 10 0 60935 18000.00000 0 17604232.138 10553228.941 15229092.616 10 0 60935 18900.00000 0 15639155.067 10116351.414 17504505.997 10 0 60935 19800.00000 0 13389851.828 9804440.984 19442008.696 10 0 60935 20700.00000 0 10909148.061 9656116.228 21004282.580 10 0 60935 21600.00000 0 8257721.216 9700052.672 22161215.857 10 0 60935 22500.00000 0 5501811.964 9953671.639 22890468.852 10 0 60935 23400.00000 0 2710715.259 10422311.219 23177896.589 10 0 60935 24300.00000 0 -45847.988 11098913.795 23017821.084 10 0 60935 25200.00000 0 -2700372.917 11964243.728 22413148.409 10 0 60935 26100.00000 0 -5190119.967 12987627.608 21375327.843 10 0 60935 27000.00000 0 -7459468.359 14128188.334 19924152.713 10 0 60935 27900.00000 0 -9461978.205 15336524.176 18087404.929 10 0 60935 28800.00000 0 -11162076.712 16556765.550 15900347.732 10 0 60935 29700.00000 0 -12536298.665 17728926.216 13405073.809 10 0 60935 30600.00000 0 -13574028.948 18791452.739 10649718.626 10 0 60935 31500.00000 0 -14277714.863 19683866.826 7687551.709 10 0 60935 32400.00000 0 -14662537.703 20349390.151 4575961.311 10 0 60935 33300.00000 0 -14755555.561 20737440.794 1375350.614 10 0 60935 34200.00000 0 -14594351.724 20805894.650 -1852033.874 10 0 60935 35100.00000 0 -14225244.370 20523014.060 -5043318.983 10 0 60935 36000.00000 0 -13701132.527 19868959.205 -8136242.216 10 0 60935 36900.00000 0 -13079069.512 18836815.047 -11070384.171 10 0 60935 37800.00000 0 -12417667.498 17433086.996 -13788370.124 10 0 60935 38700.00000 0 -11774444.772 15677641.246 -16237015.081 10 0 60935 39600.00000 0 -11203230.319 13603089.700 -18368387.521 10 0 60935 40500.00000 0 -10751738.190 11253643.607 -20140768.817 10 0 60935 41400.00000 0 -10459416.934 8683483.178 -21519487.570 10 0 60935 42300.00000 0 -10355667.509 5954711.599 -22477610.951 10 0 60935 43200.00000 0 -10458506.859 3134979.922 -22996478.469 10 0 60935 44100.00000 0 -10773734.872 294883.486 -23066067.220 10 0 60935 45000.00000 0 -11294640.296 -2494759.749 -22685181.508 10 0 60935 45900.00000 0 -12002257.669 -5165633.802 -21861463.693 10 0 60935 46800.00000 0 -12866163.292 -7654537.360 -20611227.077 10 0 60935 47700.00000 0 -13845774.992 -9905774.954 -18959115.461 10 0 60935 48600.00000 0 -14892098.768 -11873227.077 -16937597.678 10 0 60935 49500.00000 0 -15949846.482 -13522013.948 -14586308.786 10 0 60935 50400.00000 0 -16959833.147 -14829685.390 -11951252.655 10 0 60935 51300.00000 0 -17861550.968 -15786889.848 -9083883.381 10 0 60935 52200.00000 0 -18595810.337 -16397497.939 -6040085.090 10 0 60935 53100.00000 0 -19107335.794 -16678179.077 -2879071.496 10 0 60935 54000.00000 0 -19347207.638 -16657452.693 337772.218 10 0 60935 54900.00000 0 -19275047.071 -16374257.423 3548082.058 10 0 60935 55800.00000 0 -18860854.166 -15876101.309 6689718.986 10 0 60935 56700.00000 0 -18086423.063 -15216872.988 9701960.785 10 0 60935 57600.00000 0 -16946276.745 -14454407.089 12526659.866 10 0 60935 58500.00000 0 -15448083.900 -13647906.502 15109345.941 10 0 60935 59400.00000 0 -13612541.753 -12855329.135 17400254.092 10 0 60935 60300.00000 0 -11472730.476 -12130847.480 19355260.567 10 0 60935 61200.00000 0 -9072966.101 -11522485.650 20936710.470 10 0 60935 62100.00000 0 -6467198.830 -11070030.735 22114123.703 10 0 60935 63000.00000 0 -3717021.591 -10803303.881 22864767.581 10 0 60935 63900.00000 0 -889369.118 -10740861.771 23174086.681 10 0 60935 64800.00000 0 1946000.039 -10889181.741 23035982.726 10 0 60935 65700.00000 0 4719137.517 -11242364.407 22452939.435 10 0 60935 66600.00000 0 7362549.246 -11782366.887 21435989.520 10 0 60935 67500.00000 0 9813743.079 -12479758.363 20004523.343 10 0 60935 68400.00000 0 12017576.675 -13294968.600 18185941.067 10 0 60935 69300.00000 0 13928309.748 -14179979.716 16015152.727 10 0 60935 70200.00000 0 15511276.058 -15080393.085 13533933.214 10 0 60935 71100.00000 0 16744105.340 -15937787.083 10790141.917 10 0 60935 72000.00000 0 17617443.134 -16692268.615 7836819.604 10 0 60935 72900.00000 0 18135136.855 -17285112.107 4731177.879 10 0 60935 73800.00000 0 18313878.388 -17661374.982 1533499.208 10 0 60935 74700.00000 0 18182316.268 -17772378.300 -1694031.888 10 0 60935 75600.00000 0 17779673.185 -17577945.924 -4888543.872 10 0 60935 76500.00000 0 17153925.947 -17048304.853 -7987715.110 10 0 60935 77400.00000 0 16359624.381 -16165563.103 -10931007.161 10 0 60935 78300.00000 0 15455441.703 -14924699.115 -13660868.487 10 0 60935 79200.00000 0 14501561.178 -13334017.441 -16123882.893 10 0 60935 80100.00000 0 13557011.429 -11415048.441 -18271837.826 10 0 60935 81000.00000 0 12677065.408 -9201893.800 -20062689.429 10 0 60935 81900.00000 0 11910815.472 -6740043.843 -21461403.463 10 0 60935 82800.00000 0 11299029.430 -4084715.671 -22440654.018 10 0 60935 83700.00000 0 10872380.071 -1298781.969 -22981365.294 10 0 60935 84600.00000 0 10650124.269 1549621.938 -23073085.293 10 0 60935 85500.00000 0 10639287.999 4389711.368 -22714184.139 10 0 60936 0.00000 0 10834391.321 7150775.030 -21911873.773 10 0 60936 900.00000 0 11217724.040 9764893.694 -20682049.135 10 0 60936 1800.00000 0 11760158.318 12169536.695 -19048956.438 10 0 60936 2700.00000 0 12422462.082 14309932.545 -17044695.258 10 0 60936 3600.00000 0 13157055.087 16141111.495 -14708566.919 10 0 60936 4500.00000 0 13910131.071 17629537.558 -12086283.440 10 0 60936 5400.00000 0 14624054.142 18754263.737 -9229054.411 10 0 60936 6300.00000 0 15239926.442 19507565.027 -6192571.269 10 0 60936 7200.00000 0 15700217.478 19895026.082 -3035910.295 10 0 60936 8100.00000 0 15951343.678 19935083.477 179623.185 10 0 60936 9000.00000 0 15946089.586 19658045.383 3391686.237 10 0 60936 9900.00000 0 15645769.479 19104632.933 6538101.977 10 0 60936 10800.00000 0 15022039.768 18324107.117 9558052.467 10 0 60936 11700.00000 0 14058287.550 17372061.535 12393238.586 10 0 60936 12600.00000 0 12750538.691 16307974.446 14988985.800 10 0 60936 13500.00000 0 11107848.769 15192622.627 17295276.268 10 0 60936 14400.00000 0 9152161.441 14085464.366 19267689.518 10 0 60936 15300.00000 0 6917640.409 13042099.534 20868235.782 10 0 60936 16200.00000 0 4449502.252 12111910.804 22066068.212 10 0 60936 17100.00000 0 1802397.266 11335982.391 22838062.323 10 0 60936 18000.00000 0 -961596.620 10745381.165 23169253.086 10 0 60936 18900.00000 0 -3775286.465 10359870.254 23053122.365 10 0 60936 19800.00000 0 -6568890.858 10187107.923 22491731.518 10 0 60936 20700.00000 0 -9272679.042 10222365.041 21495696.228 10 0 60936 21600.00000 0 -11819616.452 10448773.663 20084002.961 10 0 60936 22500.00000 0 -14147909.679 10838097.853 18283668.753 10 0 60936 23400.00000 0 -16203347.219 11351996.576 16129248.643 10 0 60936 24300.00000 0 -17941339.822 11943728.160 13662197.592 10 0 60936 25200.00000 0 -19328575.685 12560227.215 10930096.524 10 0 60936 26100.00000 0 -20344220.675 13144468.801 7985754.886 10 0 60936 27000.00000 0 -20980611.971 13638021.772 4886204.962 10 0 60936 27900.00000 0 -21243414.099 13983684.243 1691605.802 10 0 60936 28800.00000 0 -21151228.637 14128089.494 -1535922.774 10 0 60936 29700.00000 0 -20734671.966 14024170.781 -4733513.574 10 0 60936 30600.00000 0 -20034958.275 13633378.466 -7838788.524 10 0 60936 31500.00000 0 -19102046.592 12927552.627 -10791092.790 10 0 60936 32400.00000 0 -17992429.863 11890368.447 -13532700.597 10 0 60936 33300.00000 0 -16766660.084 10518289.707 -16009966.985 10 0 60936 34200.00000 0 -15486715.394 8820986.703 -18174400.606 10 0 60936 35100.00000 0 -14213322.303 6821198.145 -19983634.355 10 0 60936 36000.00000 0 -13003348.381 4554040.660 -21402272.813 10 0 60936 36900.00000 0 -11907377.740 2065793.697 -22402598.313 10 0 60936 37800.00000 0 -10967573.650 -587789.565 -22965120.690 10 0 60936 38700.00000 0 -10215919.855 -3343574.168 -23078959.411 10 0 60936 39600.00000 0 -9672915.523 -6133449.560 -22742050.591 10 0 60936 40500.00000 0 -9346778.730 -8886948.107 -21961175.343 10 0 60936 41400.00000 0 -9233191.081 -11533965.097 -20751809.919 10 0 60936 42300.00000 0 -9315592.511 -14007465.413 -19137801.862 10 0 60936 43200.00000 0 -9566011.480 -16246063.140 -17150880.178 10 0 60936 44100.00000 0 -9946392.787 -18196366.304 -14830010.857 10 0 60936 45000.00000 0 -10410364.080 -19814989.504 -12220612.255 10 0 60936 45900.00000 0 -10905363.740 -21070151.849 -9373647.477 10 0 60936 46800.00000 0 -11375037.882 -21942795.677 -6344613.187 10 0 60936 47700.00000 0 -11761803.409 -22427182.153 -3192446.078 10 0 60936 48600.00000 0 -12009467.774 -22530942.084 21630.593 10 0 60936 49500.00000 0 -12065794.478 -22274583.307 3235297.217 10 0 60936 50400.00000 0 -11884906.421 -21690478.500 6386341.412 10 0 60936 51300.00000 0 -11429426.774 -20821378.699 9413851.920 10 0 60936 52200.00000 0 -10672268.612 -19718516.919 12259380.551 10 0 60936 53100.00000 0 -9597999.683 -18439382.596 14868051.003 10 0 60936 54000.00000 0 -8203726.481 -17045260.344 17189594.950 10 0 60936 54900.00000 0 -6499461.744 -15598635.382 19179297.529 10 0 60936 55800.00000 0 -4507960.557 -14160572.704 20798836.246 10 0 60936 56700.00000 0 -2264031.690 -12788177.402 22016999.422 10 0 60936 57600.00000 0 186648.227 -11532239.810 22810272.397 10 0 60936 58500.00000 0 2789170.227 -10435161.301 23163281.860 10 0 60936 59400.00000 0 5481412.956 -9529245.093 23069090.815 10 0 60936 60300.00000 0 8196366.385 -8835421.739 22529338.945 10 0 60936 61200.00000 0 10864666.300 -8362461.610 21554225.286 10 0 60936 62100.00000 0 13417237.850 -8106707.178 20162332.483 10 0 60936 63000.00000 0 15787941.509 -8052337.100 18380294.221 10 0 60936 63900.00000 0 17916113.915 -8172152.536 16242309.992 10 0 60936 64800.00000 0 19748899.516 -8428854.776 13789513.935 10 0 60936 65700.00000 0 21243276.490 -8776762.790 11069207.213 10 0 60936 66600.00000 0 22367692.000 -9163900.591 8133966.246 10 0 60936 67500.00000 0 23103237.192 -9534368.223 5040641.863 10 0 60936 68400.00000 0 23444310.783 -9830897.351 1849267.147 10 0 60936 69300.00000 0 23398741.091 -9997483.609 -1378105.700 10 0 60936 70200.00000 0 22987359.008 -9981983.507 -4578616.999 10 0 60936 71100.00000 0 22243037.779 -9738564.148 -7689835.566 10 0 60936 72000.00000 0 21209238.453 -9229899.387 -10650993.560 10 0 60936 72900.00000 0 19938121.525 -8429016.183 -13404194.296 10 0 60936 73800.00000 0 18488304.403 -7320709.479 -15895567.239 10 0 60936 74700.00000 0 16922360.123 -5902462.261 -18076345.250 10 0 60936 75600.00000 0 15304164.344 -4184828.749 -19903840.729 10 0 60936 76500.00000 0 13696204.424 -2191261.963 -21342299.552 10 0 60936 77400.00000 0 12156966.216 42608.852 -22363614.425 10 0 60936 78300.00000 0 10738510.667 2470221.538 -22947882.575 10 0 60936 79200.00000 0 9484343.907 5035792.991 -23083796.264 10 0 60936 80100.00000 0 8427671.488 7676427.388 -22768858.471 10 0 60936 81000.00000 0 7590110.367 10324531.284 -22009419.973 10 0 60936 81900.00000 0 6980912.131 12910433.174 -20820538.099 10 0 60936 82800.00000 0 6596728.548 15365096.588 -19225661.207 10 0 60936 83700.00000 0 6421926.998 17622812.251 -17256146.689 10 0 60936 84600.00000 0 6429439.576 19623756.206 -14950623.712 10 0 60936 85500.00000 0 6582106.905 21316307.055 -12354215.022 10 0 60937 0.00000 0 6834456.754 22659026.200 -9517635.155 10 0 60937 900.00000 0 7134839.546 23622220.543 -6496182.773 10 0 60937 1800.00000 0 7427827.830 24189022.877 -3348652.182 10 0 60937 2700.00000 0 7656777.009 24355949.966 -136181.303 10 0 60937 3600.00000 0 7766437.879 24132916.229 3078936.982 10 0 60937 4500.00000 0 7705510.636 23542706.388 6234458.229 10 0 60937 5400.00000 0 7429033.098 22619931.914 9269381.230 10 0 60937 6300.00000 0 6900503.608 21409517.298 12125111.940 10 0 60937 7200.00000 0 6093650.750 19964781.099 14746575.289 10 0 60937 8100.00000 0 4993777.011 18345192.690 17083255.197 10 0 60937 9000.00000 0 3598621.388 16613898.224 19090144.851 10 0 60937 9900.00000 0 1918705.687 14835117.957 20728591.153 10 0 60937 10800.00000 0 -22849.755 13071521.682 21967019.369 10 0 60937 11700.00000 0 -2191033.883 11381689.257 22781526.086 10 0 60937 12600.00000 0 -4540148.247 9817759.499 23156330.709 10 0 60937 13500.00000 0 -7015458.083 8423362.788 23084077.958 10 0 60937 14400.00000 0 -9555225.501 7231921.391 22565985.934 10 0 60937 15300.00000 0 -12093043.677 6265386.753 21611836.615 10 0 60937 16200.00000 0 -14560378.603 5533465.661 20239807.898 10 0 60937 17100.00000 0 -16889216.093 5033367.631 18476148.682 10 0 60937 18000.00000 0 -19014706.743 4750084.972 16354701.006 10 0 60937 18900.00000 0 -20877700.780 4657195.281 13916275.863 10 0 60937 19800.00000 0 -22427068.172 4718154.639 11207892.014 10 0 60937 20700.00000 0 -23621707.167 4888029.202 8281889.979 10 0 60937 21600.00000 0 -24432156.296 5115594.058 5194936.131 10 0 60937 22500.00000 0 -24841740.533 5345712.169 2006934.535 10 0 60937 23400.00000 0 -24847201.136 5521893.411 -1220133.248 10 0 60937 24300.00000 0 -24458780.106 5588925.130 -4423418.035 10 0 60937 25200.00000 0 -23699753.139 5495461.521 -7540438.429 10 0 60937 26100.00000 0 -22605428.624 5196459.939 -10510316.380 10 0 60937 27000.00000 0 -21221653.338 4655358.026 -13274986.954 10 0 60937 27900.00000 0 -19602887.172 3845896.103 -15780356.537 10 0 60937 28800.00000 0 -17809928.174 2753504.178 -17977384.430 10 0 60937 29700.00000 0 -15907384.776 1376191.611 -19823064.455 10 0 60937 30600.00000 0 -13961003.178 -275101.027 -21281285.296 10 0 60937 31500.00000 0 -12034964.393 -2176704.949 -22323551.105 10 0 60937 32400.00000 0 -10189266.587 -4292973.831 -22929547.094 10 0 60937 33300.00000 0 -8477304.535 -6577551.222 -23087538.447 10 0 60937 34200.00000 0 -6943749.141 -8975101.179 -22794594.663 10 0 60937 35100.00000 0 -5622816.562 -11423428.718 -22056635.429 10 0 60937 36000.00000 0 -4536999.256 -13855899.939 -20888298.019 10 0 60937 36900.00000 0 -3696310.951 -16204059.014 -19312630.151 10 0 60937 37800.00000 0 -3098075.131 -18400331.170 -17360615.892 10 0 60937 38700.00000 0 -2727263.040 -20380697.545 -15070545.669 10 0 60937 39600.00000 0 -2557363.689 -22087229.523 -12487244.581 10 0 60937 40500.00000 0 -2551745.680 -23470376.722 -9661175.954 10 0 60937 41400.00000 0 -2665450.024 -24490913.846 -6647439.342 10 0 60937 42300.00000 0 -2847335.272 -25121466.586 -3504684.068 10 0 60937 43200.00000 0 -3042481.990 -25347554.971 -293960.643 10 0 60937 44100.00000 0 -3194753.396 -25168113.235 2922466.840 10 0 60937 45000.00000 0 -3249403.244 -24595467.287 6082323.906 10 0 60937 45900.00000 0 -3155620.937 -23654773.581 9124521.443 10 0 60937 46800.00000 0 -2868907.267 -22382945.256 11990321.600 10 0 60937 47700.00000 0 -2353182.002 -20827112.288 14624452.578 10 0 60937 48600.00000 0 -1582536.175 -19042680.997 16976152.550 10 0 60937 49500.00000 0 -542557.022 -17091073.993 19000124.669 10 0 60937 50400.00000 0 768828.782 -15037244.030 20657387.013 10 0 60937 51300.00000 0 2341028.217 -12947063.693 21916003.384 10 0 60937 52200.00000 0 4150985.125 -10884697.318 22751682.968 10 0 60937 53100.00000 0 6163905.997 -8910061.819 23148238.999 10 0 60937 54000.00000 0 8334479.948 -7076479.276 23097898.740 10 0 60937 54900.00000 0 10608544.691 -5428616.331 22601459.278 10 0 60937 55800.00000 0 12925132.358 -4000794.062 21668285.838 10 0 60937 56700.00000 0 15218813.528 -2815737.302 20316151.617 10 0 60937 57600.00000 0 17422245.380 -1883814.923 18570920.515 10 0 60937 58500.00000 0 19468820.918 -1202803.080 16466076.643 10 0 60937 59400.00000 0 21295311.283 -758182.254 14042107.077 10 0 60937 60300.00000 0 22844392.431 -523957.205 11345747.087 10 0 60937 61200.00000 0 24066951.018 -463967.254 8429099.851 10 0 60937 62100.00000 0 24924072.454 -533633.555 5348645.464 10 0 60937 63000.00000 0 25388626.243 -682071.251 2164156.781 10 0 60937 63900.00000 0 25446379.770 -854478.203 -1062457.816 10 0 60937 64800.00000 0 25096590.993 -994699.406 -4268362.450 10 0 60937 65700.00000 0 24352052.238 -1047857.738 -7391028.512 10 0 60937 66600.00000 0 23238580.604 -962937.893 -10369470.820 10 0 60937 67500.00000 0 21793974.326 -695211.540 -13145459.261 10 0 60937 68400.00000 0 20066477.660 -208397.891 -15664680.101 10 0 60937 69300.00000 0 18112818.425 523535.168 -17877821.905 10 0 60937 70200.00000 0 15995901.156 1515008.933 -19741562.537 10 0 60937 71100.00000 0 13782253.966 2767971.370 -21219435.913 10 0 60937 72000.00000 0 11539338.086 4271573.105 -22282559.813 10 0 60937 72900.00000 0 9332834.967 6002397.338 -22910209.341 10 0 60937 73800.00000 0 7224026.600 7925234.926 -23090224.194 10 0 60937 74700.00000 0 5267380.434 9994372.139 -22819241.617 10 0 60937 75600.00000 0 3508441.001 12155336.356 -22102751.002 10 0 60937 76500.00000 0 1982116.614 14347025.301 -20954969.904 10 0 60937 77400.00000 0 711432.140 16504128.996 -19398545.244 10 0 60937 78300.00000 0 -293201.692 18559741.363 -17464087.103 10 0 60937 79200.00000 0 -1034174.413 20448050.689 -15189546.009 10 0 60937 80100.00000 0 -1526312.795 22106995.220 -12619447.779 10 0 60937 81000.00000 0 -1795987.618 23480772.301 -9804002.711 10 0 60937 81900.00000 0 -1879731.549 24522096.212 -6798108.253 10 0 60937 82800.00000 0 -1822429.881 25194111.188 -3660266.159 10 0 60937 83700.00000 0 -1675163.415 25471881.130 -451436.425 10 0 60937 84600.00000 0 -1492796.840 25343395.866 2766148.924 10 0 60937 85500.00000 0 -1331415.769 24810054.346 5930188.774 99